Location: *
(55.6049°S, 142.1985°W)
Time: 16:11:09
(UTC+00:00)

SL-16 R/B - Pass Details

Date: 12 May 2021
Orbit: 842 x 847 km, 71.0° (Epoch: 17 June)

Event Time Altitude Azimuth Distance (km) Brightness Sun altitude
Exits shadow 14:05:13 64° 220° (SW) 948 2.2 -26.3°
Maximum altitude 14:06:09 86° 302° (WNW) 867 2.1 -26.1°
Drops below altitude 10° 14:11:53 10° 30° (NNE) 2,483 4.9 -25.3°
Sets 14:14:19 0° 30° (NNE) 3,413 5.7 -25.0°
